Location: Unspecified
(47.9110°N, 14.3980°E)
Time: 10:38:47
(UTC+00:00)

Cosmos 1500 Rocket - Pass Details

Date: 06 August 2020
Orbit: 604 x 630 km, 82.5° (Epoch: 20 September)

Event Time Altitude Azimuth Distance (km) Brightness Sun altitude
Rises 19:34:58 0° 197° (SSW) 2,847 6.7 -10.1°
Reaches altitude 10° 19:37:11 10° 201° (SSW) 1,948 5.9 -10.3°
Maximum altitude 19:41:26 60° 282° (WNW) 699 4.1 -10.9°
Drops below altitude 10° 19:45:44 10° 3° (N) 1,966 6.7 -11.4°
Sets 19:48:00 0° 7° (N) 2,877 7.5 -11.7°
